Weather History for KFNT - October, 2012

Change the Weather History Date:

Thursday, October 25, 2012

  Actual Average Record
Temperature  
Mean Temperature 69 °F 46 °F  
Max Temperature 78 °F 56 °F 81 °F (1963)
Min Temperature 60 °F 37 °F 20 °F (1960)
Degree Days  
Heating Degree Days 0 19  
Month to date heating degree days 302 369  
Since 1 July heating degree days 476 579  
Cooling Degree Days 4 0  
Month to date cooling degree days 11 2  
Year to date cooling degree days 864 528  
Growing Degree Days 19 (Base 50)    
Moisture  
Dew Point 54 °F    
Average Humidity 58    
Maximum Humidity 73    
Minimum Humidity 43    
Precipitation  
Precipitation 0.00 in 0.07 in 0.71 in (1939)
Month to date precipitation 2.76 2.01  
Year to date precipitation 27.06 26.32  
Snow  
Snow 0.00 in 0.00 in T in (1988)
Month to date snowfall 0.0 0.3  
Since 1 July snowfall 0.0 0.3  
Since 1 September snowfall 0.0 0.3  
Snow Depth 0.00 in    
Sea Level Pressure  
Sea Level Pressure 29.89 in    
Wind  
Wind Speed 12 mph (South)    
Max Wind Speed 25 mph    
Max Gust Speed 32 mph    
Visibility 10 miles    
Events      
T = Trace of Precipitation, MM = Missing Value Source: NWS Daily Summary

Daily Weather History Graph

Daily Weather History Graph

Search for Another Location

Airport or City:

Trip Planner

Search our weather history database for the weather conditions in past years. The results will help you decide how hot, cold, wet, or windy it might be!

Date:

Astronomy

Oct. 25, 2012 Rise Set
Actual Time 8:01 AM EDT 6:36 PM EDT
Civil Twilight 7:32 AM EDT 7:05 PM EDT
Nautical Twilight 6:58 AM EDT 7:38 PM EDT
Astronomical Twilight 6:26 AM EDT 8:11 PM EDT
Moon 4:26 PM EDT (10/25) 3:51 AM EDT (10/25)
Length of Visible Light 11h 33m
Length of Day
10h 34m
Waxing Gibbous, 84% of the Moon is Illuminated
Oct 25
Waxing Gibbous
Oct 29
Full
Nov 6
Last Quarter
Nov 13
New
Nov 20
First Quarter

Hourly Weather History & Observations

Time (EDT) Temp. Dew Point Humidity Pressure Visibility Wind Dir Wind Speed Gust Speed Precip Events Conditions
12:53 AM 66.9 °F 57.9 °F 73% 29.96 in 10.0 mi South 6.9 mph - N/A   Clear
1:53 AM 66.0 °F 57.0 °F 73% 29.95 in 10.0 mi South 9.2 mph - N/A   Clear
2:53 AM 66.0 °F 55.0 °F 68% 29.95 in 10.0 mi SSW 9.2 mph - N/A   Clear
3:53 AM 63.0 °F 54.0 °F 72% 29.95 in 10.0 mi South 5.8 mph - N/A   Clear
4:53 AM 62.1 °F 53.1 °F 72% 29.94 in 10.0 mi South 6.9 mph - N/A   Clear
5:53 AM 62.1 °F 53.1 °F 72% 29.94 in 10.0 mi South 6.9 mph - N/A   Clear
6:53 AM 62.1 °F 53.1 °F 72% 29.94 in 10.0 mi South 10.4 mph - N/A   Clear
7:53 AM 62.1 °F 53.1 °F 72% 29.94 in 10.0 mi South 10.4 mph - N/A   Clear
9:53 AM 66.0 °F 54.0 °F 65% 29.95 in 10.0 mi South 9.2 mph - N/A   Clear
10:53 AM 70.0 °F 55.9 °F 61% 29.94 in 10.0 mi South 10.4 mph - N/A   Clear
11:53 AM 73.0 °F 55.9 °F 55% 29.93 in 10.0 mi SSW 16.1 mph 21.9 mph N/A   Clear
12:53 PM 75.0 °F 57.0 °F 53% 29.90 in 10.0 mi South 15.0 mph 21.9 mph N/A   Clear
1:53 PM 77.0 °F 57.0 °F 50% 29.87 in 10.0 mi South 19.6 mph 26.5 mph N/A   Clear
2:53 PM 77.0 °F 55.9 °F 48% 29.84 in 10.0 mi SSW 18.4 mph 32.2 mph N/A   Clear
3:53 PM 77.0 °F 55.0 °F 47% 29.82 in 10.0 mi South 12.7 mph 29.9 mph N/A   Clear
4:53 PM 77.0 °F 54.0 °F 45% 29.81 in 10.0 mi South 21.9 mph 29.9 mph N/A   Clear
5:53 PM 75.0 °F 53.1 °F 46% 29.81 in 10.0 mi South 15.0 mph 31.1 mph N/A   Clear
6:53 PM 73.0 °F 52.0 °F 48% 29.81 in 10.0 mi South 13.8 mph 26.5 mph N/A   Clear
7:53 PM 72.0 °F 51.1 °F 48% 29.82 in 10.0 mi South 13.8 mph 23.0 mph N/A   Clear
8:53 PM 71.1 °F 53.1 °F 53% 29.84 in 10.0 mi SSW 12.7 mph - N/A   Clear
9:53 PM 70.0 °F 54.0 °F 57% 29.82 in 10.0 mi South 13.8 mph 25.3 mph N/A   Scattered Clouds
10:53 PM 69.1 °F 53.1 °F 57% 29.82 in 10.0 mi South 11.5 mph 19.6 mph N/A   Clear
11:53 PM 69.1 °F 53.1 °F 57% 29.80 in 10.0 mi SSW 13.8 mph 21.9 mph N/A   Clear